Weather in Mesyagutovo

Russia / Republic of Bashkortostan     56°05′16″N   55°20′52″E
temp.,
°C
wind,
m/s
gust,
m/s
humid.,
%
clouds,
%
prec.,
mm/h
press.,
hPa
HPBL,
m
13 june, sun
sun1323:00+14ese5148392 0.1 1017289
02:00+13ese4127848 0.0 1016220
05:00+13ese4977100 0.3 1016140
08:00+16sse61588100 1.1 1017671
11:00+20sse71079100 2.5 1017886
14:00+21sse6874100 0.0 10171181
17:00+23s687245 0.6 10161130
20:00+20sse5108399 0.9 1016361
14 june, mon
mon1423:00+17s4129238 0.9 1017299
02:00+15sse399271 0.0 1017172
05:00+14sse339087 0.0 101840
08:00+18sse3781100 0.0 1018216
11:00+22s566399 0.0 1018553
14:00+24s555896 0.0 1018860
17:00+25ssw455931 0.0 10171073
20:00+23s3579100 0.1 1017134
15 june, tue
tue1523:00+19s3383100 0.3 101641
02:00+18s2381100 0.0 101641
05:00+17s3385100 0.0 101639
08:00+19s2678100 0.0 1016216
11:00+20s358198 0.7 1015281
14:00+26ssw685938 0.0 10141316
17:00+27ssw510585 0.0 10132135
20:00+23sw377825 0.5 1013223
16 june, wed
wed1623:00+20ssw238425 0.5 101350
02:00+17ssw33854 0.0 101228
05:00+16s227922 0.0 101215
08:00+21s24745 0.0 1012181
11:00+25s46615 0.0 1011612
14:00+27s57545 0.0 10101060
17:00+28s47556 0.0 10091726
20:00+25s38735 0.0 1008210
17 june, thu
thu1723:00+19s228157 0.0 100719
02:00+18sse228138 0.0 100519
05:00+16wnw119293 2.1 100518
08:00+18nnw6109168 0.9 1006676
11:00+18nnw810645 1.1 10081026
14:00+20nnw810500 0.0 10101856
17:00+19nnw811601 0.0 10111838
20:00+16nnw510643 0.1 1013661